Regional Weather Roundup
Issued by NWS

Home | Current Version | Previous Version | Text Only | Print | Product List | Glossary On
Versions: 1 2 3 4 5 6 7 8 9 10 11 12 13 14 15 16 17 18 19 20 21 22 23 24 25 26 27 28 29 30 31 32 33 34 35 36 37 38 39 40 41 42 43 44 45 46 47 48 49 50
000
ASUS43 KTOP 251508
RWRKS

WEATHER ROUNDUP FOR KANSAS
NATIONAL WEATHER SERVICE GOODLAND KS
1000 AM CDT SAT MAR 25 2017

NOTE:  "FAIR" INDICATES FEW OR NO CLOUDS BELOW 12,000 FEET WITH NO
SIGNIFICANT WEATHER AND/OR OBSTRUCTIONS TO VISIBILITY.

KSZ001>006-013>018-027>032-041>047-251600-
NORTHWEST KANSAS

CITY           SKY/WX    TMP DP  RH WIND       PRES   REMARKS
GOODLAND       SUNNY     42  35  76 NW12      30.06S
HAYS             N/A     43  39  86 N16       30.00S
HILL CITY      CLOUDY    39  37  92 N12       30.03F WCI  32
RUSSELL        CLOUDY    40  39  97 N14       29.98S FOG     WCI  32
$$

KSZ061>065-074>080-084>089-251600-
SOUTHWEST KANSAS

CITY           SKY/WX    TMP DP  RH WIND       PRES   REMARKS
DODGE CITY     CLOUDY    45  38  76 NW18      30.01S
ELKHART          N/A     45  29  53 NW12        N/A
GARDEN CITY    SUNNY     45  31  58 NW18      30.05S
GREAT BEND     CLOUDY    42  39  89 N18       29.99R
LIBERAL        SUNNY     46  34  61 NW18      30.08S
PRATT          CLOUDY    41  36  83 N18       29.98R
$$

KSZ066>073-081>083-090>101-251600-
SOUTHEAST KANSAS

CITY           SKY/WX    TMP DP  RH WIND       PRES   REMARKS
CHANUTE        CLOUDY    47  42  83 NW15      29.85F
COFFEYVILLE    CLOUDY    48  45  89 NW20      29.86S
HUTCHINSON     CLOUDY    42  39  89 N16G29    29.94S
MEDICINE LODGE   N/A     45  37  73 NW13G22   29.97R
NEWTON         CLOUDY    41  39  93 N24G30    29.91S
PARSONS        CLOUDY    48  44  86 NW18      29.86F
WICHITA INTL   CLOUDY    44  44 100 N18G26    29.92S
WICHITA JABRA  CLOUDY    44  40  85 N22       29.91S
WICHITA MCCONL CLOUDY    44  40  84 N14G23    29.90F
WINFIELD       CLOUDY    45  42  89 N18       29.92F
$$

KSZ007>012-019>026-033>040-048>060-102>105-251600-
NORTHEAST KANSAS

CITY           SKY/WX    TMP DP  RH WIND       PRES   REMARKS
CONCORDIA      CLOUDY    40  38  93 N15       29.96S WCI  32
EMPORIA        LGT RAIN  43  43 100 NW16      29.87F
LAWRENCE       CLOUDY    47  47 100 NW9       29.85R FOG
MANHATTAN      CLOUDY    43  41  93 N9        29.91S FOG
MARYSVILLE     LGT RAIN  41  39  93 N20G26    29.92S
OLATHE IND     CLOUDY    47  47 100 NW9       29.83S
OLATHE EXE     CLOUDY    48  48 100 NW6       29.82R
SALINA         CLOUDY    44  40  85 N17       29.95S
TOPEKA BILLARD LGT RAIN  45  45 100 NW6       29.87R FOG
TOPEKA FORBES  RAIN      45  44  97 N12       29.86R FOG
$$




USA.gov is the U.S. government's official web portal to all federal, state and local government web resources and services.